owner,sensor,date,latitude,longitude,vertical_datum,sea_water_temperature,qcFlag
BP,ioos:station:wmo:42369:3,2021-02-01T00:00:00Z,27.2043,-90.2741,451.4,66.9,11144222
BP,ioos:station:wmo:42369:3,2021-02-01T00:20:00Z,27.2039,-90.2742,451.4,66.9,11144222
BP,ioos:station:wmo:42369:3,2021-02-01T00:40:00Z,27.2035,-90.2744,451.5,66.9,11144222
BP,ioos:station:wmo:42369:3,2021-02-01T01:00:00Z,27.2031,-90.2746,451.4,66.9,11144222
BP,ioos:station:wmo:42369:3,2021-02-01T01:20:00Z,27.2027,-90.2747,450.8,66.9,11144222
BP,ioos:station:wmo:42369:3,2021-02-01T01:40:00Z,27.2025,-90.2748,452.2,66.9,11144222
BP,ioos:station:wmo:42369:3,2021-02-01T02:00:00Z,27.2023,-90.2749,451.7,66.9,11144222
BP,ioos:station:wmo:42369:3,2021-02-01T02:20:00Z,27.2022,-90.2750,451.2,66.9,11144222
BP,ioos:station:wmo:42369:3,2021-02-01T02:40:00Z,27.2019,-90.2751,451.0,66.9,11144222
BP,ioos:station:wmo:42369:3,2021-02-01T03:00:00Z,27.2016,-90.2754,451.4,66.9,11144222
BP,ioos:station:wmo:42369:3,2021-02-01T03:20:00Z,27.2014,-90.2755,451.2,66.9,11144222
BP,ioos:station:wmo:42369:3,2021-02-01T03:40:00Z,27.2011,-90.2756,451.3,66.9,11144222
BP,ioos:station:wmo:42369:3,2021-02-01T04:00:00Z,27.2008,-90.2759,452.8,66.9,11144222
BP,ioos:station:wmo:42369:3,2021-02-01T04:20:00Z,27.2005,-90.2762,452.3,66.9,11144222
BP,ioos:station:wmo:42369:3,2021-02-01T04:40:00Z,27.2002,-90.2766,452.2,66.9,11144222
BP,ioos:station:wmo:42369:3,2021-02-01T05:00:00Z,27.2001,-90.2767,452.5,66.9,11144222
BP,ioos:station:wmo:42369:3,2021-02-01T05:20:00Z,27.2000,-90.2770,451.8,66.9,11144222
BP,ioos:station:wmo:42369:3,2021-02-01T05:40:00Z,27.1999,-90.2771,451.2,66.9,11144222
BP,ioos:station:wmo:42369:3,2021-02-01T06:00:00Z,27.1998,-90.2772,451.8,66.9,11144222
BP,ioos:station:wmo:42369:3,2021-02-01T06:20:00Z,27.1997,-90.2773,452.8,66.9,11144222
BP,ioos:station:wmo:42369:3,2021-02-01T06:40:00Z,27.1998,-90.2774,451.8,66.9,11144222
BP,ioos:station:wmo:42369:3,2021-02-01T07:00:00Z,27.1997,-90.2774,451.6,66.9,11144222
BP,ioos:station:wmo:42369:3,2021-02-01T07:20:00Z,27.1996,-90.2776,451.0,66.9,11144222
BP,ioos:station:wmo:42369:3,2021-02-01T07:40:00Z,27.1995,-90.2779,451.6,66.9,11144222
BP,ioos:station:wmo:42369:3,2021-02-01T08:00:00Z,27.1995,-90.2781,450.6,66.9,11144222
BP,ioos:station:wmo:42369:3,2021-02-01T08:20:00Z,27.1994,-90.2782,450.4,66.9,11144222
BP,ioos:station:wmo:42369:3,2021-02-01T08:40:00Z,27.1994,-90.2783,450.9,66.9,11144222
BP,ioos:station:wmo:42369:3,2021-02-01T09:00:00Z,27.1994,-90.2784,450.4,66.9,11144222
BP,ioos:station:wmo:42369:3,2021-02-01T09:20:00Z,27.1994,-90.2784,450.1,66.9,11144222
BP,ioos:station:wmo:42369:3,2021-02-01T09:40:00Z,27.1994,-90.2783,450.3,66.9,11144222
BP,ioos:station:wmo:42369:3,2021-02-01T10:00:00Z,27.1995,-90.2783,449.3,66.9,11144222
BP,ioos:station:wmo:42369:3,2021-02-01T10:20:00Z,27.1996,-90.2781,449.8,66.9,11144222
BP,ioos:station:wmo:42369:3,2021-02-01T10:40:00Z,27.1998,-90.2778,450.5,66.9,11144222
BP,ioos:station:wmo:42369:3,2021-02-01T11:00:00Z,27.1999,-90.2776,449.9,66.9,11144222
BP,ioos:station:wmo:42369:3,2021-02-01T11:20:00Z,27.2001,-90.2775,449.1,66.9,11144222
BP,ioos:station:wmo:42369:3,2021-02-01T11:40:00Z,27.2001,-90.2773,450.1,66.9,11144222
BP,ioos:station:wmo:42369:3,2021-02-01T12:00:00Z,27.2002,-90.2772,449.8,66.9,11144222
BP,ioos:station:wmo:42369:3,2021-02-01T12:20:00Z,27.2003,-90.2772,450.4,66.9,11144222
BP,ioos:station:wmo:42369:3,2021-02-01T12:40:00Z,27.2006,-90.2769,448.6,66.9,11144222
BP,ioos:station:wmo:42369:3,2021-02-01T13:00:00Z,27.2008,-90.2767,449.4,66.9,11144222
BP,ioos:station:wmo:42369:3,2021-02-01T13:20:00Z,27.2010,-90.2766,449.6,66.9,11144222
BP,ioos:station:wmo:42369:3,2021-02-01T13:40:00Z,27.2011,-90.2765,449.1,66.9,11144222
BP,ioos:station:wmo:42369:3,2021-02-01T14:00:00Z,27.2014,-90.2764,448.9,66.9,11144222
BP,ioos:station:wmo:42369:3,2021-02-01T14:20:00Z,27.2015,-90.2764,448.9,66.9,11144222
BP,ioos:station:wmo:42369:3,2021-02-01T14:40:00Z,27.2016,-90.2765,448.3,66.9,11144222
BP,ioos:station:wmo:42369:3,2021-02-01T15:00:00Z,27.2018,-90.2763,448.2,66.9,11144222
BP,ioos:station:wmo:42369:3,2021-02-01T15:20:00Z,27.2019,-90.2763,449.8,66.9,11144222
BP,ioos:station:wmo:42369:3,2021-02-01T15:40:00Z,27.2019,-90.2765,449.3,66.9,11144222
BP,ioos:station:wmo:42369:3,2021-02-01T16:00:00Z,27.2019,-90.2765,449.1,66.9,11144222
BP,ioos:station:wmo:42369:3,2021-02-01T16:20:00Z,27.2020,-90.2766,448.4,66.9,11144222
BP,ioos:station:wmo:42369:3,2021-02-01T16:40:00Z,27.2021,-90.2765,449.1,66.9,11144222
BP,ioos:station:wmo:42369:3,2021-02-01T17:00:00Z,27.2022,-90.2765,449.2,66.9,11144222
BP,ioos:station:wmo:42369:3,2021-02-01T17:20:00Z,27.2024,-90.2765,447.7,66.9,11144222
BP,ioos:station:wmo:42369:3,2021-02-01T17:40:00Z,27.2025,-90.2766,448.4,66.9,11144222
BP,ioos:station:wmo:42369:3,2021-02-01T18:00:00Z,27.2027,-90.2764,448.6,66.9,11144222
BP,ioos:station:wmo:42369:3,2021-02-01T18:20:00Z,27.2029,-90.2763,448.7,66.9,11144222
BP,ioos:station:wmo:42369:3,2021-02-01T18:40:00Z,27.2031,-90.2762,448.8,66.8,11144222
BP,ioos:station:wmo:42369:3,2021-02-01T19:00:00Z,27.2033,-90.2761,448.6,66.9,11144222
BP,ioos:station:wmo:42369:3,2021-02-01T19:20:00Z,27.2036,-90.2761,448.1,66.9,11144222
BP,ioos:station:wmo:42369:3,2021-02-01T19:40:00Z,27.2039,-90.2759,448.4,66.9,11144222
BP,ioos:station:wmo:42369:3,2021-02-01T20:00:00Z,27.2041,-90.2759,447.5,66.9,11144222
BP,ioos:station:wmo:42369:3,2021-02-01T20:20:00Z,27.2044,-90.2758,448.2,66.9,11144222
BP,ioos:station:wmo:42369:3,2021-02-01T20:40:00Z,27.2047,-90.2756,449.2,66.9,11144222
BP,ioos:station:wmo:42369:3,2021-02-01T21:00:00Z,27.2049,-90.2755,448.7,66.9,11144222
BP,ioos:station:wmo:42369:3,2021-02-01T21:20:00Z,27.2051,-90.2754,449.3,66.9,11144222
BP,ioos:station:wmo:42369:3,2021-02-01T21:40:00Z,27.2051,-90.2753,448.5,66.8,11144222
BP,ioos:station:wmo:42369:3,2021-02-01T22:00:00Z,27.2052,-90.2752,448.7,66.8,11144222
BP,ioos:station:wmo:42369:3,2021-02-01T22:20:00Z,27.2053,-90.2750,448.5,66.8,11144222
BP,ioos:station:wmo:42369:3,2021-02-01T22:40:00Z,27.2053,-90.2748,448.9,66.9,11144222
BP,ioos:station:wmo:42369:3,2021-02-01T23:00:00Z,27.2054,-90.2747,447.5,66.9,11144222
BP,ioos:station:wmo:42369:3,2021-02-01T23:20:00Z,27.2053,-90.2747,449.1,66.9,11144222
BP,ioos:station:wmo:42369:3,2021-02-01T23:40:00Z,27.2052,-90.2747,448.8,66.9,11144222
BP,ioos:station:wmo:42369:3,2021-02-02T00:00:00Z,27.2049,-90.2747,448.7,66.9,11144222
BP,ioos:station:wmo:42369:3,2021-02-02T00:20:00Z,27.2047,-90.2747,449.4,66.9,11144222
BP,ioos:station:wmo:42369:3,2021-02-02T00:40:00Z,27.2044,-90.2746,449.9,66.9,11144222
BP,ioos:station:wmo:42369:3,2021-02-02T01:00:00Z,27.2042,-90.2745,449.9,66.9,11144222
BP,ioos:station:wmo:42369:3,2021-02-02T01:20:00Z,27.2041,-90.2745,449.5,66.9,11144222
BP,ioos:station:wmo:42369:3,2021-02-02T01:40:00Z,27.2039,-90.2746,449.8,66.9,11144222
BP,ioos:station:wmo:42369:3,2021-02-02T02:00:00Z,27.2037,-90.2746,450.3,66.9,11144222
BP,ioos:station:wmo:42369:3,2021-02-02T02:20:00Z,27.2035,-90.2747,450.3,66.9,11144222
BP,ioos:station:wmo:42369:3,2021-02-02T02:40:00Z,27.2035,-90.2746,449.7,66.9,11144222
BP,ioos:station:wmo:42369:3,2021-02-02T03:00:00Z,27.2034,-90.2747,449.9,66.9,11144222
BP,ioos:station:wmo:42369:3,2021-02-02T03:20:00Z,27.2033,-90.2747,451.0,66.9,11144222
BP,ioos:station:wmo:42369:3,2021-02-02T03:40:00Z,27.2030,-90.2747,450.4,66.9,11144222
BP,ioos:station:wmo:42369:3,2021-02-02T04:00:00Z,27.2029,-90.2749,450.2,66.9,11144222
BP,ioos:station:wmo:42369:3,2021-02-02T04:20:00Z,27.2027,-90.2750,449.6,66.9,11144222
BP,ioos:station:wmo:42369:3,2021-02-02T04:40:00Z,27.2025,-90.2751,449.3,66.9,11144222
BP,ioos:station:wmo:42369:3,2021-02-02T05:00:00Z,27.2022,-90.2753,449.1,66.9,11144222
BP,ioos:station:wmo:42369:3,2021-02-02T05:20:00Z,27.2019,-90.2755,448.9,66.9,11144222
BP,ioos:station:wmo:42369:3,2021-02-02T05:40:00Z,27.2017,-90.2757,448.7,66.9,11144222
BP,ioos:station:wmo:42369:3,2021-02-02T06:00:00Z,27.2016,-90.2759,449.2,66.9,11144222
BP,ioos:station:wmo:42369:3,2021-02-02T06:20:00Z,27.2015,-90.2760,449.0,66.9,11144222
BP,ioos:station:wmo:42369:3,2021-02-02T06:40:00Z,27.2014,-90.2760,449.3,66.9,11144222
BP,ioos:station:wmo:42369:3,2021-02-02T07:00:00Z,27.2013,-90.2760,449.2,66.9,11144222
BP,ioos:station:wmo:42369:3,2021-02-02T07:20:00Z,27.2012,-90.2761,450.2,66.9,11144222
BP,ioos:station:wmo:42369:3,2021-02-02T07:40:00Z,27.2010,-90.2763,450.7,66.9,11144222
BP,ioos:station:wmo:42369:3,2021-02-02T08:00:00Z,27.2008,-90.2765,449.2,66.9,11144222
BP,ioos:station:wmo:42369:3,2021-02-02T08:20:00Z,27.2005,-90.2768,449.6,66.9,11144222
BP,ioos:station:wmo:42369:3,2021-02-02T08:40:00Z,27.2004,-90.2771,449.4,66.9,11144222
BP,ioos:station:wmo:42369:3,2021-02-02T09:00:00Z,27.2002,-90.2774,449.6,66.9,11144222
BP,ioos:station:wmo:42369:3,2021-02-02T09:20:00Z,27.2000,-90.2776,449.8,66.9,11144222
BP,ioos:station:wmo:42369:3,2021-02-02T09:40:00Z,27.1999,-90.2778,448.6,66.9,11144222
BP,ioos:station:wmo:42369:3,2021-02-02T10:00:00Z,27.1997,-90.2781,449.6,66.9,11144222
BP,ioos:station:wmo:42369:3,2021-02-02T10:20:00Z,27.1995,-90.2784,449.8,66.9,11144222
BP,ioos:station:wmo:42369:3,2021-02-02T10:40:00Z,27.1994,-90.2787,449.4,66.9,11144222
BP,ioos:station:wmo:42369:3,2021-02-02T11:00:00Z,27.1993,-90.2791,449.5,66.9,11144222
BP,ioos:station:wmo:42369:3,2021-02-02T11:20:00Z,27.1992,-90.2795,448.8,66.9,11144222
BP,ioos:station:wmo:42369:3,2021-02-02T11:40:00Z,27.1990,-90.2798,448.8,66.9,11144222
BP,ioos:station:wmo:42369:3,2021-02-02T12:00:00Z,27.1990,-90.2800,450.3,66.9,11144222
BP,ioos:station:wmo:42369:3,2021-02-02T12:20:00Z,27.1990,-90.2803,450.1,66.9,11144222
BP,ioos:station:wmo:42369:3,2021-02-02T12:40:00Z,27.1990,-90.2804,448.7,66.9,11144222
BP,ioos:station:wmo:42369:3,2021-02-02T13:00:00Z,27.1990,-90.2807,449.1,66.9,11144222
BP,ioos:station:wmo:42369:3,2021-02-02T13:20:00Z,27.1991,-90.2809,448.5,66.9,11144222
BP,ioos:station:wmo:42369:3,2021-02-02T13:40:00Z,27.1992,-90.2811,448.8,66.9,11144222
BP,ioos:station:wmo:42369:3,2021-02-02T14:00:00Z,27.1993,-90.2815,448.7,66.9,11144222
BP,ioos:station:wmo:42369:3,2021-02-02T14:20:00Z,27.1993,-90.2819,448.1,66.9,11144222
BP,ioos:station:wmo:42369:3,2021-02-02T14:40:00Z,27.1995,-90.2822,448.0,66.9,11144222
BP,ioos:station:wmo:42369:3,2021-02-02T15:00:00Z,27.1998,-90.2824,447.7,66.9,11144222
BP,ioos:station:wmo:42369:3,2021-02-02T15:20:00Z,27.2001,-90.2826,448.5,66.9,11144222
BP,ioos:station:wmo:42369:3,2021-02-02T15:40:00Z,27.2003,-90.2828,448.7,66.9,11144222
BP,ioos:station:wmo:42369:3,2021-02-02T16:00:00Z,27.2007,-90.2830,448.2,66.9,11144222
BP,ioos:station:wmo:42369:3,2021-02-02T16:20:00Z,27.2010,-90.2831,448.1,66.9,11144222
BP,ioos:station:wmo:42369:3,2021-02-02T16:40:00Z,27.2015,-90.2831,448.0,66.9,11144222
BP,ioos:station:wmo:42369:3,2021-02-02T17:00:00Z,27.2021,-90.2831,448.8,66.9,11144222
BP,ioos:station:wmo:42369:3,2021-02-02T17:20:00Z,27.2029,-90.2830,448.9,67.0,11144222
BP,ioos:station:wmo:42369:3,2021-02-02T17:40:00Z,27.2037,-90.2830,448.7,66.9,11144222
BP,ioos:station:wmo:42369:3,2021-02-02T18:00:00Z,27.2046,-90.2828,448.5,66.9,11144222
BP,ioos:station:wmo:42369:3,2021-02-02T18:20:00Z,27.2057,-90.2825,447.8,66.9,11144222
BP,ioos:station:wmo:42369:3,2021-02-02T18:40:00Z,27.2070,-90.2822,447.9,66.9,11144222
BP,ioos:station:wmo:42369:3,2021-02-02T19:00:00Z,27.2078,-90.2819,447.4,66.9,11144222
BP,ioos:station:wmo:42369:3,2021-02-02T19:20:00Z,27.2089,-90.2816,448.6,66.9,11144222
BP,ioos:station:wmo:42369:3,2021-02-02T19:40:00Z,27.2100,-90.2810,448.3,66.9,11144222
BP,ioos:station:wmo:42369:3,2021-02-02T20:00:00Z,27.2110,-90.2802,448.9,66.9,11144222
BP,ioos:station:wmo:42369:3,2021-02-02T20:20:00Z,27.2117,-90.2795,449.1,66.9,11144222
BP,ioos:station:wmo:42369:3,2021-02-02T20:40:00Z,27.2118,-90.2789,448.5,66.9,11144222
BP,ioos:station:wmo:42369:3,2021-02-02T21:00:00Z,27.2117,-90.2785,448.2,66.9,11144222
BP,ioos:station:wmo:42369:3,2021-02-02T21:20:00Z,27.2116,-90.2781,448.7,66.9,11144222
BP,ioos:station:wmo:42369:3,2021-02-02T21:40:00Z,27.2114,-90.2778,448.5,66.9,11144222
BP,ioos:station:wmo:42369:3,2021-02-02T22:00:00Z,27.2112,-90.2774,448.7,66.9,11144222
BP,ioos:station:wmo:42369:3,2021-02-02T22:20:00Z,27.2110,-90.2771,448.9,66.9,11144222
BP,ioos:station:wmo:42369:3,2021-02-02T22:40:00Z,27.2109,-90.2769,449.5,66.9,11144222
BP,ioos:station:wmo:42369:3,2021-02-02T23:00:00Z,27.2107,-90.2767,448.7,66.9,11144222
BP,ioos:station:wmo:42369:3,2021-02-02T23:20:00Z,27.2105,-90.2764,449.6,66.9,11144222
BP,ioos:station:wmo:42369:3,2021-02-02T23:40:00Z,27.2103,-90.2761,448.9,66.9,11144222
BP,ioos:station:wmo:42369:3,2021-02-03T00:00:00Z,27.2101,-90.2759,448.2,66.9,11144222
BP,ioos:station:wmo:42369:3,2021-02-03T00:20:00Z,27.2098,-90.2757,449.1,66.9,11144222
BP,ioos:station:wmo:42369:3,2021-02-03T00:40:00Z,27.2094,-90.2755,448.9,66.9,11144222
BP,ioos:station:wmo:42369:3,2021-02-03T01:00:00Z,27.2091,-90.2753,449.6,66.9,11144222
BP,ioos:station:wmo:42369:3,2021-02-03T01:20:00Z,27.2089,-90.2752,449.0,66.9,11144222
BP,ioos:station:wmo:42369:3,2021-02-03T01:40:00Z,27.2087,-90.2750,449.3,66.9,11144222
BP,ioos:station:wmo:42369:3,2021-02-03T02:00:00Z,27.2085,-90.2749,449.5,66.9,11144222
BP,ioos:station:wmo:42369:3,2021-02-03T02:20:00Z,27.2085,-90.2748,449.7,66.9,11144222
BP,ioos:station:wmo:42369:3,2021-02-03T02:40:00Z,27.2084,-90.2748,449.5,67.0,11144222
BP,ioos:station:wmo:42369:3,2021-02-03T03:00:00Z,27.2083,-90.2748,449.9,67.0,11144222
BP,ioos:station:wmo:42369:3,2021-02-03T03:20:00Z,27.2082,-90.2748,449.0,67.0,11144222
BP,ioos:station:wmo:42369:3,2021-02-03T03:40:00Z,27.2081,-90.2747,448.4,66.9,11144222
BP,ioos:station:wmo:42369:3,2021-02-03T04:00:00Z,27.2080,-90.2747,448.3,67.0,11144222
BP,ioos:station:wmo:42369:3,2021-02-03T04:20:00Z,27.2079,-90.2747,450.1,66.9,11144222
BP,ioos:station:wmo:42369:3,2021-02-03T04:40:00Z,27.2078,-90.2747,449.0,66.9,11144222
BP,ioos:station:wmo:42369:3,2021-02-03T05:00:00Z,27.2077,-90.2747,448.3,66.9,11144222
BP,ioos:station:wmo:42369:3,2021-02-03T05:20:00Z,27.2075,-90.2747,448.8,66.9,11144222
BP,ioos:station:wmo:42369:3,2021-02-03T05:40:00Z,27.2074,-90.2747,449.7,66.9,11144222
BP,ioos:station:wmo:42369:3,2021-02-03T06:00:00Z,27.2073,-90.2747,448.7,66.9,11144222
BP,ioos:station:wmo:42369:3,2021-02-03T06:20:00Z,27.2073,-90.2747,448.3,66.9,11144222
BP,ioos:station:wmo:42369:3,2021-02-03T06:40:00Z,27.2072,-90.2747,448.5,66.9,11144222
BP,ioos:station:wmo:42369:3,2021-02-03T07:00:00Z,27.2072,-90.2747,449.1,66.9,11144222
BP,ioos:station:wmo:42369:3,2021-02-03T07:20:00Z,27.2071,-90.2748,448.3,66.9,11144222
BP,ioos:station:wmo:42369:3,2021-02-03T07:40:00Z,27.2070,-90.2748,448.4,66.9,11144222
BP,ioos:station:wmo:42369:3,2021-02-03T08:00:00Z,27.2070,-90.2749,449.0,66.9,11144222
BP,ioos:station:wmo:42369:3,2021-02-03T08:20:00Z,27.2070,-90.2750,448.9,66.9,11144222
BP,ioos:station:wmo:42369:3,2021-02-03T08:40:00Z,27.2070,-90.2751,448.4,66.9,11144222
BP,ioos:station:wmo:42369:3,2021-02-03T09:00:00Z,27.2070,-90.2752,448.7,66.9,11144222
BP,ioos:station:wmo:42369:3,2021-02-03T09:20:00Z,27.2070,-90.2753,448.4,66.9,11144222
BP,ioos:station:wmo:42369:3,2021-02-03T09:40:00Z,27.2072,-90.2755,447.7,66.9,11144222
BP,ioos:station:wmo:42369:3,2021-02-03T10:00:00Z,27.2072,-90.2756,449.3,66.9,11144222
BP,ioos:station:wmo:42369:3,2021-02-03T10:20:00Z,27.2072,-90.2757,448.5,66.9,11144222
BP,ioos:station:wmo:42369:3,2021-02-03T10:40:00Z,27.2074,-90.2759,448.2,66.9,11144222
BP,ioos:station:wmo:42369:3,2021-02-03T11:00:00Z,27.2076,-90.2761,449.1,66.9,11144222
BP,ioos:station:wmo:42369:3,2021-02-03T11:20:00Z,27.2078,-90.2764,448.8,66.9,11144222
BP,ioos:station:wmo:42369:3,2021-02-03T11:40:00Z,27.2081,-90.2769,448.8,66.9,11144222
BP,ioos:station:wmo:42369:3,2021-02-03T12:00:00Z,27.2086,-90.2775,447.7,67.0,11144222
BP,ioos:station:wmo:42369:3,2021-02-03T12:20:00Z,27.2089,-90.2779,448.5,66.9,11144222
BP,ioos:station:wmo:42369:3,2021-02-03T12:40:00Z,27.2093,-90.2783,448.7,66.9,11144222
BP,ioos:station:wmo:42369:3,2021-02-03T13:00:00Z,27.2097,-90.2788,447.7,66.9,11144222
BP,ioos:station:wmo:42369:3,2021-02-03T13:20:00Z,27.2101,-90.2793,447.7,67.0,11144222
BP,ioos:station:wmo:42369:3,2021-02-03T13:40:00Z,27.2106,-90.2797,448.7,66.9,11144222
BP,ioos:station:wmo:42369:3,2021-02-03T14:00:00Z,27.2111,-90.2801,448.6,66.9,11144222
BP,ioos:station:wmo:42369:3,2021-02-03T14:20:00Z,27.2115,-90.2806,448.0,67.0,11144222
BP,ioos:station:wmo:42369:3,2021-02-03T14:40:00Z,27.2118,-90.2811,449.1,66.9,11144222
BP,ioos:station:wmo:42369:3,2021-02-03T15:00:00Z,27.2120,-90.2812,448.5,66.9,11144222
BP,ioos:station:wmo:42369:3,2021-02-03T15:20:00Z,27.2121,-90.2814,448.7,66.9,11144222
BP,ioos:station:wmo:42369:3,2021-02-03T15:40:00Z,27.2122,-90.2815,448.6,66.9,11144222
BP,ioos:station:wmo:42369:3,2021-02-03T16:00:00Z,27.2123,-90.2816,447.7,66.9,11144222
BP,ioos:station:wmo:42369:3,2021-02-03T16:20:00Z,27.2124,-90.2816,448.2,66.9,11144222
BP,ioos:station:wmo:42369:3,2021-02-03T16:40:00Z,27.2125,-90.2814,449.4,66.9,11144222
BP,ioos:station:wmo:42369:3,2021-02-03T17:00:00Z,27.2125,-90.2814,448.4,66.9,11144222
BP,ioos:station:wmo:42369:3,2021-02-03T17:20:00Z,27.2126,-90.2813,449.0,66.9,11144222
BP,ioos:station:wmo:42369:3,2021-02-03T17:40:00Z,27.2126,-90.2812,448.6,66.9,11144222
BP,ioos:station:wmo:42369:3,2021-02-03T18:00:00Z,27.2127,-90.2810,449.2,66.9,11144222
BP,ioos:station:wmo:42369:3,2021-02-03T18:20:00Z,27.2127,-90.2809,449.3,67.0,11144222
BP,ioos:station:wmo:42369:3,2021-02-03T18:40:00Z,27.2127,-90.2807,449.0,66.9,11144222
BP,ioos:station:wmo:42369:3,2021-02-03T19:00:00Z,27.2128,-90.2806,449.3,66.9,11144222
BP,ioos:station:wmo:42369:3,2021-02-03T19:20:00Z,27.2127,-90.2804,448.8,67.0,11144222
BP,ioos:station:wmo:42369:3,2021-02-03T19:40:00Z,27.2127,-90.2803,448.5,66.9,11144222
BP,ioos:station:wmo:42369:3,2021-02-03T20:00:00Z,27.2127,-90.2802,449.9,66.9,11144222
BP,ioos:station:wmo:42369:3,2021-02-03T20:20:00Z,27.2127,-90.2801,448.8,66.9,11144222
BP,ioos:station:wmo:42369:3,2021-02-03T20:40:00Z,27.2126,-90.2800,448.5,66.9,11144222
BP,ioos:station:wmo:42369:3,2021-02-03T21:00:00Z,27.2126,-90.2798,449.1,66.9,11144222
BP,ioos:station:wmo:42369:3,2021-02-03T21:20:00Z,27.2125,-90.2796,448.9,66.9,11144222
BP,ioos:station:wmo:42369:3,2021-02-03T21:40:00Z,27.2124,-90.2793,449.0,66.9,11144222
BP,ioos:station:wmo:42369:3,2021-02-03T22:00:00Z,27.2123,-90.2791,449.1,66.9,11144222
BP,ioos:station:wmo:42369:3,2021-02-03T22:20:00Z,27.2122,-90.2789,449.7,66.9,11144222
BP,ioos:station:wmo:42369:3,2021-02-03T22:40:00Z,27.2121,-90.2787,448.7,66.9,11144222
BP,ioos:station:wmo:42369:3,2021-02-03T23:00:00Z,27.2120,-90.2785,449.0,66.9,11144222
BP,ioos:station:wmo:42369:3,2021-02-03T23:20:00Z,27.2119,-90.2783,449.5,66.9,11144222
BP,ioos:station:wmo:42369:3,2021-02-03T23:40:00Z,27.2118,-90.2782,448.3,66.9,11144222
BP,ioos:station:wmo:42369:3,2021-02-04T00:00:00Z,27.2118,-90.2780,448.3,67.0,11144222
BP,ioos:station:wmo:42369:3,2021-02-04T00:20:00Z,27.2116,-90.2779,449.4,66.9,11144222
BP,ioos:station:wmo:42369:3,2021-02-04T00:40:00Z,27.2116,-90.2778,449.3,66.9,11144222
BP,ioos:station:wmo:42369:3,2021-02-04T01:00:00Z,27.2115,-90.2779,448.3,67.0,11144222
BP,ioos:station:wmo:42369:3,2021-02-04T01:20:00Z,27.2115,-90.2779,449.4,66.9,11144222
BP,ioos:station:wmo:42369:3,2021-02-04T01:40:00Z,27.2114,-90.2778,448.7,67.0,11144222
BP,ioos:station:wmo:42369:3,2021-02-04T02:00:00Z,27.2114,-90.2777,448.9,67.0,11144222
BP,ioos:station:wmo:42369:3,2021-02-04T02:20:00Z,27.2113,-90.2777,448.3,67.0,11144222
BP,ioos:station:wmo:42369:3,2021-02-04T02:40:00Z,27.2113,-90.2775,448.5,66.9,11144222
BP,ioos:station:wmo:42369:3,2021-02-04T03:00:00Z,27.2113,-90.2775,449.1,66.9,11144222
BP,ioos:station:wmo:42369:3,2021-02-04T03:20:00Z,27.2113,-90.2775,448.9,66.9,11144222
BP,ioos:station:wmo:42369:3,2021-02-04T03:40:00Z,27.2114,-90.2777,448.5,66.9,11144222
BP,ioos:station:wmo:42369:3,2021-02-04T04:20:00Z,27.2116,-90.2780,448.5,66.9,11144222
BP,ioos:station:wmo:42369:3,2021-02-04T04:40:00Z,27.2117,-90.2780,448.9,66.9,11144222
BP,ioos:station:wmo:42369:3,2021-02-04T05:00:00Z,27.2118,-90.2781,449.4,66.9,11144222
BP,ioos:station:wmo:42369:3,2021-02-04T05:20:00Z,27.2118,-90.2782,448.2,66.9,11144222
BP,ioos:station:wmo:42369:3,2021-02-04T05:40:00Z,27.2119,-90.2783,448.5,66.9,11144222
BP,ioos:station:wmo:42369:3,2021-02-04T06:00:00Z,27.2120,-90.2785,448.2,66.9,11144222
BP,ioos:station:wmo:42369:3,2021-02-04T06:20:00Z,27.2121,-90.2786,449.7,66.9,11144222
BP,ioos:station:wmo:42369:3,2021-02-04T06:40:00Z,27.2122,-90.2787,448.4,66.9,11144222
BP,ioos:station:wmo:42369:3,2021-02-04T07:00:00Z,27.2122,-90.2788,448.2,66.9,11144222
BP,ioos:station:wmo:42369:3,2021-02-04T07:20:00Z,27.2123,-90.2790,449.1,66.9,11144222
BP,ioos:station:wmo:42369:3,2021-02-04T07:40:00Z,27.2124,-90.2792,449.6,66.9,11144222
BP,ioos:station:wmo:42369:3,2021-02-04T08:00:00Z,27.2125,-90.2794,448.9,66.9,11144222
BP,ioos:station:wmo:42369:3,2021-02-04T08:20:00Z,27.2126,-90.2796,449.7,66.9,11144222
BP,ioos:station:wmo:42369:3,2021-02-04T08:40:00Z,27.2127,-90.2799,449.1,66.9,11144222
BP,ioos:station:wmo:42369:3,2021-02-04T09:00:00Z,27.2128,-90.2802,449.3,66.9,11144222
BP,ioos:station:wmo:42369:3,2021-02-04T09:20:00Z,27.2129,-90.2806,449.4,66.9,11144222
BP,ioos:station:wmo:42369:3,2021-02-04T09:40:00Z,27.2130,-90.2808,449.9,67.0,11144222
BP,ioos:station:wmo:42369:3,2021-02-04T10:00:00Z,27.2130,-90.2811,449.8,67.0,11144222
BP,ioos:station:wmo:42369:3,2021-02-04T10:20:00Z,27.2131,-90.2813,448.8,66.9,11144222
BP,ioos:station:wmo:42369:3,2021-02-04T10:40:00Z,27.2131,-90.2815,449.2,67.0,11144222
BP,ioos:station:wmo:42369:3,2021-02-04T11:00:00Z,27.2131,-90.2817,449.9,67.0,11144222
BP,ioos:station:wmo:42369:3,2021-02-04T11:20:00Z,27.2131,-90.2817,449.1,67.0,11144222
BP,ioos:station:wmo:42369:3,2021-02-04T11:40:00Z,27.2131,-90.2818,449.9,67.0,11144222
BP,ioos:station:wmo:42369:3,2021-02-04T12:00:00Z,27.2131,-90.2818,449.6,67.0,11144222
BP,ioos:station:wmo:42369:3,2021-02-04T12:20:00Z,27.2131,-90.2817,449.4,67.0,11144222
BP,ioos:station:wmo:42369:3,2021-02-04T12:40:00Z,27.2131,-90.2817,449.2,67.0,11144222
BP,ioos:station:wmo:42369:3,2021-02-04T13:00:00Z,27.2131,-90.2817,449.0,67.0,11144222
BP,ioos:station:wmo:42369:3,2021-02-04T13:20:00Z,27.2131,-90.2819,450.0,67.0,11144222
BP,ioos:station:wmo:42369:3,2021-02-04T13:40:00Z,27.2131,-90.2819,449.9,67.0,11144222
BP,ioos:station:wmo:42369:3,2021-02-04T14:00:00Z,27.2132,-90.2819,449.7,67.0,11144222
BP,ioos:station:wmo:42369:3,2021-02-04T14:20:00Z,27.2132,-90.2818,449.9,67.0,11144222
BP,ioos:station:wmo:42369:3,2021-02-04T14:40:00Z,27.2132,-90.2816,451.0,67.0,11144222
BP,ioos:station:wmo:42369:3,2021-02-04T15:00:00Z,27.2132,-90.2815,449.7,67.0,11144222
BP,ioos:station:wmo:42369:3,2021-02-04T15:20:00Z,27.2132,-90.2815,450.0,67.0,11144222
BP,ioos:station:wmo:42369:3,2021-02-04T15:40:00Z,27.2132,-90.2815,449.8,67.0,11144222
BP,ioos:station:wmo:42369:3,2021-02-04T16:00:00Z,27.2132,-90.2815,449.4,67.0,11144222
BP,ioos:station:wmo:42369:3,2021-02-04T16:20:00Z,27.2132,-90.2812,450.7,67.0,11144222
BP,ioos:station:wmo:42369:3,2021-02-04T16:40:00Z,27.2133,-90.2810,450.9,67.0,11144222
BP,ioos:station:wmo:42369:3,2021-02-04T17:00:00Z,27.2133,-90.2808,451.4,67.0,11144222
BP,ioos:station:wmo:42369:3,2021-02-04T17:20:00Z,27.2133,-90.2806,450.9,67.0,11144222
BP,ioos:station:wmo:42369:3,2021-02-04T17:40:00Z,27.2133,-90.2806,451.2,67.0,11144222
BP,ioos:station:wmo:42369:3,2021-02-04T18:00:00Z,27.2133,-90.2805,451.5,67.0,11144222
BP,ioos:station:wmo:42369:3,2021-02-04T18:20:00Z,27.2133,-90.2803,451.1,67.0,11144222
BP,ioos:station:wmo:42369:3,2021-02-04T18:40:00Z,27.2133,-90.2803,451.8,67.0,11144222
BP,ioos:station:wmo:42369:3,2021-02-04T19:00:00Z,27.2133,-90.2801,451.3,67.0,11144222
BP,ioos:station:wmo:42369:3,2021-02-04T19:20:00Z,27.2133,-90.2799,451.5,67.0,11144222